This demonstration page uses our WeatherBlox Daily Observations layout. Learn more.

Hourly Observations for September 26, 2020

Temp ( °F °C ) Dew Point ( °F °C ) Humidity (%) Winds ( mph kmh ) Pressure ( in mb ) Visibility ( mi km ) Precip ( " mm )
12:53 am 00:53 Mostly Cloudy 64 17.8 62 16.7 93 93 Calm 29.98 1015 9 14.48406 0 0
1:53 am 01:53 Cloudy with Mist and Fog 62 16.7 61 16.1 96 96 Calm 29.98 1015 3 4.82802 0 0
2:53 am 02:53 Mostly Cloudy with Mist and Fog 62 16.7 61 16.1 96 96 Calm 29.98 1015 2.5 4.02335 0 0
3:11 am 03:11 Mostly Clear with Mist and Fog 62 16.7 61 16.1 96 96 Calm 29.98 1015 1 1.60934 0 0
3:19 am 03:19 Clear with Fog 61 16.1 60 15.6 97 97 Calm 29.99 1015 0.5 0.80467 0 0
3:33 am 03:33 Clear with Mist and Fog 62 16.7 61 16.1 96 96 Calm 29.98 1015 2 3.21868 0 0
3:39 am 03:39 Clear with Mist and Fog 59 15 59 15 100 100 Calm 29.99 1016 0.75 1.207005 0 0
3:53 am 03:53 Clear with Mist and Fog 60 15.6 59 15 96 96 Calm 29.97 1015 1.5 2.41401 0 0
3:55 am 03:55 Mostly Clear with Mist and Fog 60 15.6 59 15 96 96 Calm 29.98 1015 3 4.82802 0 0
4:03 am 04:03 Partly Cloudy with Mist and Fog 59 15 59 15 100 100 Calm 29.98 1015 1.25 2.011675 0 0
4:05 am 04:05 Mostly Cloudy with Mist and Fog 59 15 58 14.4 96 96 Calm 29.98 1015 0.75 1.207005 0 0
4:27 am 04:27 Mostly Cloudy with Fog 59 15 58 14.4 96 96 Calm 29.98 1015 0.25 0.402335 0 0
4:53 am 04:53 Mostly Cloudy with Fog 58 14.4 58 14.4 100 100 Calm 29.98 1015 0.5 0.80467 0 0
5:04 am 05:04 Mostly Cloudy with Fog 59 15 58 14.4 96 96 Calm 29.99 1016 0.25 0.402335 0 0
5:53 am 05:53 Mostly Cloudy with Fog 59 15 58 14.4 96 96 Calm 29.99 1016 0.25 0.402335 0 0
6:53 am 06:53 Mostly Cloudy with Fog 60 15.6 59 15 96 96 Calm 30 1016 0.25 0.402335 0 0
7:53 am 07:53 Mostly Cloudy with Fog 59 15 59 15 100 100 Calm 30.02 1017 N/A 0 0
8:53 am 08:53 Mostly Cloudy with Fog 61 16.1 61 16.1 100 100 Calm 30.03 1017 0.25 0.402335 0 0
9:23 am 09:23 Cloudy with Mist and Fog 63 17.2 62 16.7 97 97 Calm 30.03 1017 1 1.60934 0 0
9:32 am 09:32 Mostly Cloudy with Mist and Fog 63 17.2 63 17.2 100 100 Calm 30.03 1017 2 3.21868 0 0
9:53 am 09:53 Mostly Cloudy 65 18.3 64 17.8 97 97 Calm 30.03 1017 8 12.87472 0 0
10:53 am 10:53 Mostly Cloudy 70 21.1 63 17.2 79 79 Calm 30.04 1017 8 12.87472 0 0
11:53 am 11:53 Cloudy 73 22.8 64 17.8 74 74 S 8 13 30.01 1016 10 16.0934 0 0
12:53 pm 12:53 Cloudy 74 23.3 63 17.2 69 69 S 8 13 29.99 1016 10 16.0934 0 0
1:53 pm 13:53 Cloudy 74 23.3 63 17.2 69 69 SSW 9 15 29.98 1015 10 16.0934 0 0
2:53 pm 14:53 Cloudy 77 25 63 17.2 62 62 S 10 17 29.95 1014 10 16.0934 0 0
3:53 pm 15:53 Cloudy 76 24.4 62 16.7 62 62 S 12 19 29.94 1014 10 16.0934 0 0
4:53 pm 16:53 Cloudy 77 25 63 17.2 62 62 SSW 9 15 29.92 1013 10 16.0934 0 0
5:53 pm 17:53 Mostly Cloudy 76 24.4 62 16.7 62 62 S 12 19 29.92 1013 10 16.0934 0 0
6:53 pm 18:53 Mostly Sunny 74 23.3 61 16.1 64 64 SSW 9 15 29.92 1013 10 16.0934 0 0
7:53 pm 19:53 Clear 68 20 61 16.1 78 78 S 5 7 29.92 1013 10 16.0934 0 0
8:53 pm 20:53 Clear 65 18.3 61 16.1 87 87 SSW 3 6 29.92 1013 10 16.0934 0 0
9:53 pm 21:53 Clear 63 17.2 61 16.1 93 93 Calm 29.93 1013 10 16.0934 0 0
10:38 pm 22:38 Clear with Mist and Fog 62 16.7 60 15.6 93 93 Calm 29.93 1014 1.75 2.816345 0 0
10:53 pm 22:53 Clear with Fog 61 16.1 60 15.6 97 97 Calm 29.93 1014 0.5 0.80467 0 0
11:17 pm 23:17 Clear with Mist and Fog 59 15 59 15 100 100 Calm 29.94 1014 2 3.21868 0 0
11:25 pm 23:25 Clear 59 15 58 14.4 96 96 Calm 29.94 1014 9 14.48406 0 0
11:53 pm 23:53 Clear 60 15.6 58 14.4 93 93 Calm 29.93 1013 7 11.26538 0 0

Powered by AerisWeather